Location: Rounton
(54.4000°N, 1.3500°W)
Time: 22:55:34
(UTC+01:00)

Vanguard 1 - Pass Details

Date: 27 February 2024
Orbit: 653 x 3825 km, 34.2° (Epoch: 21 April)

Event Time Altitude Azimuth Distance (km) Brightness Sun altitude
Rises 17:45:34 0° 193° (SSW) 4,967 14.0 -2.1°
Reaches altitude 10° 17:49:46 10° 176° (S) 4,474 13.5 -2.7°
Maximum altitude 17:58:00 19° 136° (SE) 4,592 13.2 -3.9°
Drops below altitude 10° 18:09:05 10° 100° (E) 6,263 13.5 -5.4°
Enters shadow 18:12:37 - 93° (E) 6,918 13.7 -6.0°
Sets 18:16:48 0° 87° (E) 7,708 - -6.6°
